[[{"header":{"parameterUnit":"m.s-1","parameterCategory":1,"la1":30.2991,"la2":30.254,"lo1":-89.0895,"lo2":-89.0444,"dy":0.0017,"dx":0.0017,"nx":28,"ny":28,"refTime":"2025-03-28T21:00:00:Z","depth":0,"parameterNumber":2,"parameterNumberName":"U-component_of_WINDS"},"data":[0,0,0,0,0,0,0,0,0,0,0,0,0,0,0,0,0,0,0,0,0,0,0,0,0,0,0,0,0,0,0,0,0,0,0,0,0,0,0,0,0,0,0,0,0,0,0,0,0,0,0,0,0,0,0,0,0,0,-2.2846,-2.2847,0,-2.2955,-2.2957,-2.2958,-2.3008,-2.3008,-2.3008,-2.3008,-2.3119,-2.3122,-2.3125,0,0,0,0,0,0,0,0,0,0,0,0,0,-2.2677,-2.268,-2.2845,-2.2847,-2.2848,-2.2955,-2.2957,-2.2958,-2.3008,-2.3008,-2.3008,-2.3008,-2.3118,-2.3122,-2.3125,0,0,0,0,0,0,0,0,0,0,0,0,0,-2.2765,-2.2681,-2.2845,-2.2886,-2.2891,-2.2955,-2.2957,-2.2959,-2.3008,-2.3008,-2.3008,-2.3008,-2.3117,-2.3121,-2.3126,-2.3157,0,0,-2.314,-2.3142,0,0,0,0,0,0,0,0,-2.276,-2.2771,-2.2879,-2.2884,-2.2889,-2.2968,-2.2938,-2.3025,-2.3008,-2.2964,-2.3008,-2.3008,-2.3069,-2.3077,-2.3098,-2.3162,-2.3167,-2.314,-2.3143,-2.3145,-2.3146,0,0,0,0,0,0,0,-2.2754,-2.2767,-2.2889,-2.288,-2.2887,-2.2899,-2.2911,-2.2955,-2.3016,-2.2968,-2.2972,-2.2984,-2.3072,-2.3094,-2.3101,-2.3169,-2.314,-2.3144,-2.3147,-2.3149,-2.3263,-2.3264,0,0,0,0,0,0,-2.2741,-2.2761,-2.2886,-2.2892,-2.2823,-2.2902,-2.2915,-2.2943,-2.3015,-2.3026,-2.2984,-2.2986,-2.3086,-2.3096,-2.3105,-2.3147,-2.3145,-2.3149,-2.3152,-2.3263,-2.3263,-2.3264,0,0,0,0,0,0,-2.2738,-2.2752,-2.2881,-2.2828,-2.2845,-2.2905,-2.2935,-2.2945,-2.2967,-2.3028,-2.3039,-2.2996,-2.3086,-2.3099,-2.3144,-2.3151,-2.3151,-2.3155,-2.3263,-2.3263,-2.3263,-2.3229,0,0,0,0,0,0,-2.2733,-2.275,-2.2763,-2.2828,-2.2848,-2.2918,-2.2936,-2.2947,-2.2975,-2.2979,-2.3042,-2.3052,-2.3087,-2.3137,-2.3148,-2.3157,-2.3159,-2.3262,-2.3263,-2.3263,-2.323,-2.3228,-2.3227,0,0,0,0,0,-2.2726,-2.2749,-2.2764,-2.2778,-2.2865,-2.2918,-2.293,-2.2971,-2.2976,-2.2989,-2.3028,-2.305,-2.3148,-2.3141,-2.3154,-2.3165,-2.3262,-2.3263,-2.3263,-2.3231,-2.3229,-2.3227,0,0,0,0,0,0,-2.2683,-2.2758,-2.2775,-2.282,-2.2862,-2.2927,-2.2945,-2.2967,-2.3009,-2.3011,-2.3059,-2.3073,-2.3113,-2.3144,-2.3134,-2.3199,-2.3207,-2.321,-2.3178,-2.3176,-2.3175,-2.3167,-2.3163,0,0,0,0,0,-2.2679,-2.2716,-2.2779,-2.2812,-2.2833,-2.2885,-2.291,-2.2937,-2.2983,-2.3001,-2.3044,-2.3087,-2.3128,-2.3154,-2.3195,-2.3234,-2.3249,-2.3248,-2.3247,-2.3245,-2.3248,-2.3271,-2.3272,-2.3266,-2.3266,-2.3266,0,0,-2.267,-2.2716,-2.2736,-2.2805,-2.2841,-2.2878,-2.29,-2.2938,-2.2966,-2.3007,-2.3053,-2.3085,-2.3136,-2.3179,-2.3199,-2.3205,-2.3253,-2.3246,-2.3245,-2.3248,-2.3272,-2.3272,-2.3273,-2.3266,-2.3266,-2.3266,0,0,-2.2674,-2.2712,-2.2744,-2.2779,-2.2834,-2.2869,-2.2876,-2.2937,-2.2961,-2.3007,-2.3038,-2.3072,-2.3141,-2.3177,-2.3204,-2.322,-2.3242,-2.3232,-2.3224,-2.3246,-2.3247,-2.3248,-2.3253,-2.3255,-2.3234,-2.3234,-2.3234,0,-2.2656,-2.2714,-2.2757,-2.2794,-2.2823,-2.2862,-2.2894,-2.2926,-2.2991,-2.301,-2.3016,-2.3104,-2.3141,-2.3192,-2.3196,-2.3217,-2.3227,-2.3225,-2.3243,-2.3244,-2.3246,-2.3252,-2.3254,-2.3232,-2.3232,-2.3232,-2.3233,0,-2.2689,-2.2729,-2.2747,-2.281,-2.2841,-2.2875,-2.2923,-2.2949,-2.2973,-2.3007,-2.3053,-2.3099,-2.315,-2.3164,-2.3189,-2.3219,-2.3221,-2.3234,-2.3244,-2.3244,-2.3251,-2.3253,-2.323,-2.323,-2.3231,-2.3231,0,0,-2.2669,-2.2755,-2.2761,-2.2789,-2.2852,-2.2884,-2.2919,-2.2969,-2.2991,-2.3034,-2.3065,-2.3122,-2.3135,-2.3166,-2.3194,-2.3214,-2.3223,-2.3225,-2.3227,-2.3223,-2.326,-2.325,-2.3252,-2.3238,-2.3239,-2.3239,-2.3256,0,-2.2681,-2.2748,-2.2787,-2.2837,-2.2874,-2.2911,-2.2942,-2.2983,-2.3015,-2.3051,-2.3086,-2.3126,-2.314,-2.3159,-2.318,-2.3218,-2.3231,-2.3217,-2.3267,-2.3269,-2.3254,-2.3255,-2.3245,-2.3258,-2.3258,-2.3259,-2.3259,0,-2.2705,-2.2748,-2.2801,-2.286,-2.2877,-2.2904,-2.2953,-2.2986,-2.3034,-2.3056,-2.309,-2.3119,-2.3157,-2.3163,-2.3217,-2.3206,-2.3229,-2.3251,-2.3252,-2.3259,-2.3264,-2.3262,-2.3263,-2.3265,-2.3264,-2.3263,-2.3263,0,-2.2685,-2.2756,-2.2797,-2.282,-2.289,-2.2908,-2.2938,-2.2985,-2.3013,-2.3055,-2.3074,-2.312,-2.3145,-2.318,-2.322,-2.3221,-2.327,-2.3279,-2.3289,-2.3288,-2.3298,-2.3297,-2.3303,-2.3312,-2.3312,-2.3312,-2.3312,0,-2.2695,-2.2726,-2.2789,-2.2814,-2.285,-2.2895,-2.2929,-2.2962,-2.3004,-2.3036,-2.3071,-2.31,-2.3151,-2.3186,-2.3218,-2.3258,-2.3269,-2.3287,-2.3296,-2.3285,-2.3282,-2.33,-2.3301,-2.3313,-2.3313,-2.3313,-2.3312,0,-2.2679,-2.2722,-2.277,-2.2831,-2.2848,-2.2871,-2.2924,-2.295,-2.2984,-2.3024,-2.3036,-2.3088,-2.3132,-2.3175,-2.3234,-2.3255,-2.3294,-2.3305,-2.3278,-2.3283,-2.329,-2.3289,-2.3309,-2.3314,-2.3318,-2.3318,-2.3318,0,-2.2682,-2.2707,-2.2772,-2.2796,-2.2825,-2.2863,-2.2891,-2.2936,-2.2964,-2.302,-2.3039,-2.3085,-2.3124,-2.3192,-2.3235,-2.328,-2.3292,-2.3296,-2.3299,-2.3288,-2.3293,-2.3291,-2.3294,-2.3295,-2.3294,-2.3294,-2.3294,0,-2.2684,-2.2704,-2.2744,-2.2791,-2.2824,-2.2863,-2.2903,-2.292,-2.2973,-2.3002,-2.3047,-2.3078,-2.3138,-2.3183,-2.3233,-2.3263,-2.3287,-2.3293,-2.3297,-2.3287,-2.327,-2.3279,-2.3275,-2.3292,-2.3292,-2.3292,-2.3292,-2.3293,-2.2679,-2.2702,-2.2751,-2.2794,-2.2829,-2.2866,-2.2893,-2.293,-2.2968,-2.3021,-2.3044,-2.309,-2.3137,-2.3206,-2.3236,-2.3272,-2.3278,-2.3285,-2.3287,-2.3288,-2.3285,-2.3264,-2.3281,-2.3281,-2.3281,-2.3281,-2.3281,0,-2.2682,-2.2715,-2.2754,-2.2809,-2.2843,-2.2863,-2.2908,-2.2935,-2.2974,-2.3016,-2.3054,-2.3106,-2.315,-2.3196,-2.3243,-2.3263,-2.3275,-2.3273,-2.3273,-2.3279,-2.3277,-2.3268,-2.3263,-2.3263,-2.3263,-2.3263,-2.3263,-2.3263,-2.2688,-2.2729,-2.2755,-2.2814,-2.2847,-2.2892,-2.2916,-2.295,-2.2984,-2.304,-2.3076,-2.3106,-2.315,-2.32,-2.3242,-2.3254,-2.327,-2.3265,-2.3281,-2.3278,-2.3279,-2.3281,-2.3273,-2.3268,-2.3268,-2.328,-2.328,-2.328]},{"header":{"parameterUnit":"m.s-1","parameterCategory":1,"la1":30.2991,"la2":30.254,"lo1":-89.0895,"lo2":-89.0444,"dy":0.0017,"dx":0.0017,"nx":28,"ny":28,"refTime":"2025-03-28T21:00:00:Z","depth":0,"parameterNumber":3,"parameterNumberName":"V-component_of_WINDS"},"data":[0,0,0,0,0,0,0,0,0,0,0,0,0,0,0,0,0,0,0,0,0,0,0,0,0,0,0,0,0,0,0,0,0,0,0,0,0,0,0,0,0,0,0,0,0,0,0,0,0,0,0,0,0,0,0,0,0,0,4.9212,4.9213,0,4.9287,4.9288,4.9289,4.9293,4.9292,4.9291,4.929,4.9365,4.9368,4.937,0,0,0,0,0,0,0,0,0,0,0,0,0,4.9074,4.9076,4.9212,4.9213,4.9214,4.9287,4.9288,4.9289,4.9293,4.9292,4.9291,4.929,4.9364,4.9367,4.9371,0,0,0,0,0,0,0,0,0,0,0,0,0,4.914,4.9077,4.9212,4.9225,4.9227,4.9287,4.9288,4.9289,4.9293,4.9292,4.9291,4.9289,4.9363,4.9367,4.9371,4.9422,0,0,4.9384,4.9386,0,0,0,0,0,0,0,0,4.9136,4.9145,4.9222,4.9224,4.9226,4.9279,4.9266,4.9334,4.9293,4.9268,4.929,4.9289,4.9337,4.9343,4.936,4.9426,4.9429,4.9384,4.9387,4.9388,4.939,0,0,0,0,0,0,0,4.9131,4.9142,4.9241,4.9223,4.9226,4.9227,4.9235,4.9279,4.9309,4.927,4.927,4.9279,4.9338,4.9356,4.9362,4.943,4.9384,4.9388,4.939,4.9392,4.9548,4.9549,0,0,0,0,0,0,4.9124,4.9138,4.9239,4.9244,4.9177,4.9231,4.924,4.9263,4.9308,4.9314,4.928,4.9279,4.935,4.9357,4.9365,4.9432,4.9388,4.9392,4.9395,4.9546,4.9548,4.955,0,0,0,0,0,0,4.9121,4.9133,4.9236,4.9191,4.9204,4.9235,4.9261,4.9266,4.9284,4.9316,4.9321,4.9293,4.9349,4.9359,4.9409,4.9434,4.9394,4.9398,4.9544,4.9547,4.9549,4.9563,0,0,0,0,0,0,4.9117,4.9132,4.9151,4.9191,4.9207,4.9279,4.9263,4.9268,4.9291,4.929,4.933,4.9335,4.9349,4.9403,4.9414,4.9439,4.9401,4.9542,4.9545,4.9548,4.9561,4.9566,4.957,0,0,0,0,0,4.9112,4.9151,4.9152,4.9164,4.9231,4.928,4.9289,4.9305,4.9293,4.9313,4.9335,4.9334,4.943,4.9408,4.942,4.9447,4.954,4.9544,4.9548,4.9558,4.9565,4.957,0,0,0,0,0,0,4.911,4.9156,4.9158,4.921,4.9242,4.9281,4.9306,4.931,4.9344,4.9342,4.936,4.9369,4.942,4.9438,4.9414,4.9502,4.9484,4.949,4.9488,4.9494,4.9499,4.9494,4.9405,0,0,0,0,0,4.9116,4.9153,4.919,4.9233,4.9249,4.9275,4.9297,4.9307,4.934,4.9353,4.9378,4.941,4.9448,4.9472,4.9508,4.9564,4.9574,4.9588,4.9593,4.9597,4.9602,4.9638,4.9646,4.9562,4.9562,4.9562,0,0,4.9128,4.9158,4.9179,4.9233,4.9259,4.9297,4.9286,4.9325,4.9355,4.9358,4.9409,4.9429,4.9466,4.9521,4.9546,4.9538,4.9628,4.9602,4.9604,4.9608,4.9642,4.965,4.9657,4.9564,4.9564,4.9563,0,0,4.917,4.9195,4.9235,4.9262,4.9302,4.932,4.933,4.937,4.9385,4.9436,4.9441,4.9476,4.9539,4.9567,4.9589,4.9648,4.965,4.9659,4.9684,4.9719,4.9725,4.9731,4.9756,4.9764,4.9664,4.9664,4.9664,0,4.9179,4.9237,4.9255,4.9297,4.9322,4.933,4.9372,4.9397,4.9446,4.9464,4.9454,4.9538,4.9563,4.9627,4.9642,4.9658,4.9672,4.9655,4.9723,4.9729,4.9735,4.9758,4.9767,4.9665,4.9665,4.9665,4.9665,0,4.9249,4.929,4.9318,4.9368,4.9396,4.9438,4.9463,4.949,4.9499,4.9519,4.9574,4.9605,4.965,4.9665,4.9672,4.9731,4.9726,4.9719,4.9702,4.9744,4.9766,4.9775,4.9667,4.9667,4.9666,4.9666,0,0,4.9289,4.9352,4.9362,4.9388,4.9435,4.9466,4.951,4.9556,4.958,4.9615,4.9653,4.971,4.9706,4.9732,4.9743,4.9773,4.9822,4.9764,4.9765,4.9776,4.9893,4.9899,4.9909,4.9824,4.9825,4.9827,4.9891,0,4.9338,4.9416,4.9436,4.9503,4.9543,4.9554,4.9592,4.9626,4.9647,4.9684,4.9707,4.9748,4.9738,4.9755,4.9785,4.981,4.9846,4.9805,4.9861,4.9863,4.9853,4.992,4.9925,4.9984,4.99,4.9901,4.9902,0,4.9404,4.9444,4.9516,4.9563,4.958,4.9615,4.9661,4.9696,4.9736,4.9749,4.9781,4.9791,4.9839,4.9819,4.9887,4.9859,4.9883,4.99,4.9902,4.9909,4.9886,4.9931,5.0003,5.0013,4.9916,4.9914,4.9914,0,4.943,4.9501,4.9555,4.9576,4.963,4.9655,4.9679,4.9718,4.9746,4.9787,4.9806,4.985,4.9875,4.9911,4.9933,4.9916,5.0001,4.9982,5.0015,5.0015,5.0032,5.0031,5.0112,5.0045,5.0045,5.0045,5.0045,0,4.9484,4.9528,4.9568,4.9601,4.9652,4.9676,4.9726,4.975,4.9786,4.9825,4.9836,4.9873,4.9899,4.9941,4.9958,5.0014,5.0025,5.0038,5.0043,5.0038,5.0037,5.0055,5.0052,5.0048,5.0047,5.0047,5.0046,0,4.952,4.9549,4.9609,4.9657,4.9671,4.9707,4.9749,4.9783,4.9806,4.9856,4.9869,4.9904,4.9954,4.998,5.0041,5.0053,5.0117,5.0118,5.0104,5.0106,5.0139,5.0137,5.0236,5.0252,5.0172,5.0173,5.0174,0,4.9553,4.9588,4.9643,4.9671,4.9696,4.974,4.977,4.9796,4.9826,4.9878,4.9906,4.9957,4.9998,5.0077,5.0109,5.0157,5.0161,5.0192,5.0168,5.0164,5.0165,5.0163,5.0169,5.0197,5.0197,5.0198,5.0199,0,4.961,4.9624,4.9666,4.9716,4.9753,4.9792,4.9831,4.9854,4.9886,4.9921,4.9973,5.0005,5.007,5.0121,5.0173,5.0198,5.0205,5.0206,5.0217,5.0214,5.0205,5.0214,5.0118,5.0204,5.0203,5.0203,5.0203,5.0202,4.9648,4.9681,4.9726,4.9775,4.9808,4.9846,4.9882,4.9911,4.9955,5.0011,5.0023,5.0079,5.0123,5.0193,5.0221,5.0266,5.0259,5.0274,5.0278,5.0282,5.0285,5.0197,5.0275,5.0275,5.0275,5.0274,5.0274,0,4.9707,4.9738,4.9783,4.984,4.9879,4.9884,4.9929,4.9962,5.0011,5.0052,5.0095,5.0157,5.0208,5.0245,5.0298,5.0327,5.0332,5.034,5.0339,5.0346,5.0286,5.0273,5.0336,5.0336,5.0336,5.0336,5.0336,5.0336,4.9743,4.9802,4.9822,4.9898,4.9928,4.9984,5.0011,5.0047,5.008,5.0149,5.0193,5.0217,5.0258,5.0315,5.0363,5.0373,5.0393,5.0401,5.0412,5.0356,5.0349,5.0343,5.0331,5.0405,5.0405,5.0468,5.0469,5.0469]}]]